User: anonymous   Login
Location: STAR School
(35.3054°N, 111.2976°W)
Time: 12:12:15
(UTC-07:00)
Language:

Vanguard 2 - Orbit

View from above orbital plane
View from above orbital plane
View from above satellite
View from above satellite

Ground track
Ground track

The orbit data is extracted from the following two-line orbital elements,

1    11U 59001A   19141.31015223 -.00000025  00000-0 -29151-4 0  9991
2    11  32.8707  91.3270 1468554 192.2338 163.8487 11.85622826570048
Epoch (UTC): 21 May 2019 07:26:37
Eccentricity: 0.1468554
inclination: 32.8707°
perigee height: 553 km
apogee height: 2939 km
right ascension of ascending node: 91.3270°
argument of perigee: 192.2338°
revolutions per day: 11.85622826
mean anomaly at epoch: 163.8487°
orbit number at epoch: 57004

The dashed part of the orbit path shows where the satellite is in the earth's shadow,  

DLR